TimePST,TemperatureF,Dew PointF,Humidity,Sea Level PressureIn,VisibilityMPH,Wind Direction,Wind SpeedMPH,Gust SpeedMPH,PrecipitationIn,Events,Conditions,WindDirDegrees,DateUTC
12:53 AM,48.9,35.1,59,29.78,10.0,SSE,10.4,-,0.00,Rain,Light Rain,160,2012-12-04 08:53:00
1:53 AM,45.0,39.9,82,29.77,6.0,South,10.4,-,0.03,Rain,Light Rain,170,2012-12-04 09:53:00
2:53 AM,46.0,39.9,79,29.73,6.0,SSE,13.8,-,0.08,Rain,Light Rain,160,2012-12-04 10:53:00
3:53 AM,51.1,39.9,66,29.70,10.0,South,12.7,19.6,0.00,Rain,Light Rain,180,2012-12-04 11:53:00
4:53 AM,52.0,42.1,69,29.71,10.0,South,17.3,26.5,0.01,,Overcast,190,2012-12-04 12:53:00
5:53 AM,52.0,41.0,66,29.75,10.0,South,17.3,24.2,N/A,,Overcast,190,2012-12-04 13:53:00
6:53 AM,53.1,42.1,66,29.77,10.0,SSW,17.3,25.3,N/A,,Overcast,200,2012-12-04 14:53:00
7:53 AM,55.0,42.1,62,29.77,10.0,South,12.7,24.2,N/A,,Overcast,190,2012-12-04 15:53:00
8:53 AM,55.9,42.1,60,29.80,10.0,SSW,9.2,-,N/A,,Overcast,210,2012-12-04 16:53:00
9:53 AM,57.0,43.0,59,29.81,10.0,South,3.5,-,N/A,,Overcast,170,2012-12-04 17:53:00
10:53 AM,57.9,43.0,58,29.79,10.0,South,21.9,28.8,N/A,,Overcast,190,2012-12-04 18:53:00
11:53 AM,57.9,43.0,58,29.79,10.0,SSW,24.2,31.1,N/A,,Overcast,200,2012-12-04 19:53:00
12:53 PM,57.9,44.1,60,29.78,10.0,SSW,19.6,32.2,N/A,,Overcast,200,2012-12-04 20:53:00
1:53 PM,59.0,43.0,55,29.77,10.0,SSW,17.3,27.6,N/A,,Overcast,200,2012-12-04 21:53:00
2:53 PM,57.9,44.1,60,29.78,10.0,South,17.3,-,N/A,,Overcast,190,2012-12-04 22:53:00
3:53 PM,57.0,44.1,62,29.78,10.0,South,17.3,-,N/A,,Mostly Cloudy,190,2012-12-04 23:53:00
4:53 PM,57.9,43.0,58,29.77,10.0,South,11.5,-,N/A,,Partly Cloudy,170,2012-12-05 00:53:00
5:53 PM,57.0,43.0,59,29.75,10.0,South,11.5,-,N/A,,Overcast,180,2012-12-05 01:53:00
6:53 PM,57.9,43.0,58,29.75,10.0,South,15.0,-,N/A,,Overcast,180,2012-12-05 02:53:00
7:53 PM,57.9,43.0,58,29.74,10.0,South,12.7,-,N/A,,Overcast,190,2012-12-05 03:53:00
8:53 PM,57.0,43.0,59,29.74,10.0,SSW,11.5,-,N/A,,Overcast,200,2012-12-05 04:53:00
9:53 PM,57.0,43.0,59,29.73,10.0,South,11.5,-,N/A,,Overcast,180,2012-12-05 05:53:00
10:53 PM,57.0,43.0,59,29.72,10.0,South,10.4,-,N/A,,Overcast,190,2012-12-05 06:53:00
11:53 PM,57.0,43.0,59,29.73,10.0,SSW,20.7,28.8,N/A,,Overcast,210,2012-12-05 07:53:00